Regional Weather Roundup
Issued by NWS Boston, MA

Current Version | Previous Version | Text Only | Print | Product List | Glossary Off
Versions: 1 2 3 4 5 6 7 8 9 10 11 12 13 14 15 16 17 18 19 20 21 22 23 24 25 26 27 28 29 30 31 32 33 34 35 36 37 38 39 40 41 42 43 44 45 46 47 48 49 50
000 ASUS41 KBOX 221610 RWRBOX REGIONAL WEATHER ROUNDUP NATIONAL WEATHER SERVICE TAUNTON MA 1200 PM EDT THU JUN 22 2017 NOTE: "FAIR" INDICATES FEW OR NO CLOUDS BELOW 12,000 FEET WITH NO SIGNIFICANT WEATHER AND/OR OBSTRUCTIONS TO VISIBILITY. MAZALL-221700- EASTERN MASSACHUSETTS CITY SKY/WX TMP DP RH WIND PRES REMARKS BOSTON MOSUNNY 76 55 48 E8 29.95S BEVERLY SUNNY 77 54 44 SW6 29.94S LAWRENCE MOSUNNY 79 52 38 SW7 29.96S BEDFORD SUNNY 79 49 34 W9 29.94R BLUE HILL N/A 79 52 38 W10G18 29.96S NORWOOD MOSUNNY 79 52 38 VRB5 29.94F MARSHFIELD SUNNY 75 54 46 E6 29.96R PLYMOUTH SUNNY 77 54 44 VRB6 29.96S TAUNTON SUNNY 80 53 39 VRB5 29.95S NEW BEDFORD SUNNY 78 54 43 VRB6 29.95F $$ MAZALL-221700- CAPE COD AND THE ISLANDS CITY SKY/WX TMP DP RH WIND PRES REMARKS FALMOUTH SUNNY 77 54 44 SW10 29.97S HYANNIS SUNNY 75 56 51 S7 29.95F CHATHAM SUNNY 76 61 59 S6 29.97F PROVINCETOWN SUNNY 73 55 53 NW7 29.97S NANTUCKET SUNNY 72 60 66 SW10 29.97F MARTHAS VNYRD SUNNY 77 57 50 W6 29.97S $$ MAZALL-221700- CENTRAL AND WESTERN MASSACHUSETTS CITY SKY/WX TMP DP RH WIND PRES REMARKS WORCESTER MOSUNNY 74 48 39 SW8G20 29.99R FITCHBURG NOT AVBL ORANGE SUNNY 76 49 38 SW7G18 29.97F SPRINGFIELD MOSUNNY 78 51 39 NW7 29.96F WESTFIELD SUNNY 79 52 38 VRB5 29.97F NORTH ADAMS MOSUNNY 73 54 51 W9 29.99F PITTSFIELD MOSUNNY 72 53 51 W10G17 30.00F $$ RIZALL-221700- RHODE ISLAND CITY SKY/WX TMP DP RH WIND PRES REMARKS PROVIDENCE MOSUNNY 79 54 41 SW8 29.96F NEWPORT SUNNY 75 60 59 S8 29.97S BLOCK ISLAND SUNNY 74 55 51 SW9 29.99S WESTERLY SUNNY 79 55 43 SW9 29.98S $$ CTZALL-221700- CONNECTICUT CITY SKY/WX TMP DP RH WIND PRES REMARKS BRADLEY INTL MOSUNNY 78 54 43 W7 29.98S HARTFORD SUNNY 79 53 40 W7 29.97F BRIDGEPORT SUNNY 78 58 49 S8 29.99S DANBURY SUNNY 77 57 50 VRB6 30.01S GROTON MOSUNNY 73 58 59 SW13 29.97S NEW HAVEN MOSUNNY 73 61 64 S9 29.99F CHESTER FAIR 79 52 38 W8 29.99S MERIDEN SUNNY 78 52 40 SW8 29.98S WILLIMANTIC SUNNY 79 51 37 W10G17 29.98S OXFORD MOSUNNY 75 54 46 W7 30.01F $$ MEZ002-015-021-024-NHZ003-005-008-011-012-014-VTZ005-008-221700- NORTHERN NEW ENGLAND CITY SKY/WX TMP DP RH WIND PRES REMARKS PORTLAND ME MOSUNNY 78 48 34 W13G21 29.91F BANGOR ME PTSUNNY 73 50 44 W10 29.87F CONCORD NH MOSUNNY 77 51 40 W10 29.94F MANCHESTER NH MOSUNNY 78 47 33 NW9G17 29.93F NASHUA NH SUNNY 78 54 43 W8 29.95F PORTSMOUTH NH MOSUNNY 78 50 37 W7 29.92S JAFFREY NH SUNNY 74 52 46 NW7 29.98F KEENE NH MOSUNNY 76 53 44 SW9 29.96F BURLINGTON VT MOSUNNY 76 57 51 VRB3 29.94F MT. WASHINGTON PTSUNNY 45 41 87 W28 N/A $$ NYZ052-076-221700- EASTERN NEW YORK CITY SKY/WX TMP DP RH WIND PRES REMARKS ALBANY PTSUNNY 76 54 46 SW7 29.98F NEW YORK CITY MOSUNNY 81 57 43 S8 29.98F $$ ANZALL-221700- MARINE OBSERVATIONS STATION/POSITION TIME TEMP WIND PRES VSBY WAVE AIR SEA DIR/SP/G HT/PER (UTC) (F) (DEG/KT/KT) (MB) (MI) (FT/S) BOSTON BUOY 1450 65 59 200/ 4/ 4 1014.3 1/ 8 BUZZARDS BAY 1500 67 260/ 6/ 6 1015.3F NANTUCKET SOUND 1550 67 1014.6F 1/ 5 MASS BAY-STELLWA 1504 64 61 200/ 6/ 6 1013.3F 1/ 7 ISLE OF SHOALS 1500 68 190/ 8/ 8 1013.5F S OF BLOCK IS 1555 64 N/A 3/ 6 $$ ......................KEY......................... SKY/WX - SKY CONDITION/PRESENT WEATHER TMP - TEMPERATURE IN FAHRENHEIT DWPT - DEWPOINT IN FAHRENHEIT RH - RELATIVE HUMIDITY IN PERCENT WIND - DIRECTION AND SPEED IN MPH PRES - MEAN SEA LEVEL PRESSURE IN INCHES OF HG WCI - WIND CHILL INDEX VSB - VISIBILITY IN MILES HX - HEAT INDEX TC - TEMPERATURE IN CELSIUS VRB - VARIABLE WIND DIRECTION N/A - NOT AVAILABLE

USA.gov is the U.S. government's official web portal to all federal, state and local government web resources and services.